Weather History for Kelso-Longview, WA

Change the Weather History Date:

Tuesday, August 27, 2013

  Actual Average Record
Temperature  
Mean Temperature 66 °F -  
Max Temperature 73 °F 73 °F 91 °F (2006)
Min Temperature 60 °F 52 °F 46 °F (2000)
Cooling Degree Days 2    
Growing Degree Days 16 (Base 50)    
Moisture  
Dew Point 58 °F    
Average Humidity 79    
Maximum Humidity 88    
Minimum Humidity 64    
Precipitation  
Precipitation 0.06 in - - ()
Sea Level Pressure  
Sea Level Pressure 29.91 in    
Wind  
Wind Speed 2 mph (West)    
Max Wind Speed 8 mph    
Max Gust Speed -    
Visibility 10 miles    
Events      
Averages and records for this station are not official NWS values.
T = Trace of Precipitation, MM = Missing Value Source: NWS Daily Summary

Daily Weather History Graph

Daily Weather History Graph

Search for Another Location

Airport:

Trip Planner

Search our weather history database for the weather conditions in past years. The results will help you decide how hot, cold, wet, or windy it might be!

Date:

Astronomy

Aug. 27, 2013 Rise Set
Actual Time 6:26 AM PDT 7:58 PM PDT
Civil Twilight 5:54 AM PDT 8:30 PM PDT
Nautical Twilight 5:16 AM PDT 9:07 PM PDT
Astronomical Twilight 4:35 AM PDT 9:48 PM PDT
Moon 11:30 PM PDT (8/27) 1:54 PM PDT (8/27)
Length of Visible Light 14h 35m
Length of Day
13h 32m
Waning Gibbous, 56% of the Moon is Illuminated
Aug 27
Waning Gibbous
Aug 28
Last Quarter
Sep 5
New
Sep 12
First Quarter
Sep 19
Full

Hourly Weather History & Observations

Time (PDT) Temp. Dew Point Humidity Pressure Visibility Wind Dir Wind Speed Gust Speed Precip Events Conditions
12:15 AM 62.6 °F 57.2 °F 82% 30.00 in 10.0 mi North - - N/A   Overcast
12:35 AM - - N/A% 29.99 in 10.0 mi North - - N/A   Overcast
12:55 AM - - N/A% 29.99 in 10.0 mi North - - N/A   Overcast
1:15 AM - - N/A% 30.00 in 10.0 mi North - - 0.01 in   Overcast
1:35 AM - - N/A% 29.99 in 5.0 mi North - - 0.02 in   Overcast
1:55 AM - - N/A% 29.98 in 5.0 mi North - - 0.05 in   Mostly Cloudy
2:15 AM - - N/A% 29.98 in 10.0 mi North - - 0.01 in   Overcast
2:35 AM - - N/A% 29.98 in 10.0 mi North - - 0.01 in   Overcast
2:55 AM 60.8 °F 57.2 °F 88% 29.98 in 10.0 mi North - - 0.01 in   Overcast
3:15 AM 60.8 °F 57.2 °F 88% 29.98 in 10.0 mi North - - N/A   Overcast
3:35 AM 60.8 °F 57.2 °F 88% 29.98 in 10.0 mi North - - N/A   Overcast
3:55 AM - - N/A% 29.97 in 10.0 mi North - - N/A   Overcast
4:15 AM 60.8 °F 57.2 °F 88% 29.97 in 10.0 mi North - - N/A   Overcast
4:35 AM 60.8 °F 57.2 °F 88% 29.97 in 10.0 mi North - - N/A   Overcast
4:55 AM 62.6 °F 57.2 °F 82% 29.97 in 10.0 mi North - - N/A   Overcast
5:15 AM 60.8 °F 57.2 °F 88% 29.97 in 10.0 mi North - - N/A   Overcast
5:35 AM 62.6 °F 57.2 °F 82% 29.97 in 10.0 mi North - - N/A   Overcast
5:55 AM 62.6 °F 57.2 °F 82% 29.96 in 10.0 mi North - - N/A   Overcast
6:15 AM 62.6 °F 57.2 °F 82% 29.97 in 10.0 mi North - - N/A   Overcast
6:35 AM 62.6 °F 57.2 °F 82% 29.97 in 10.0 mi North - - N/A   Overcast
6:55 AM 62.6 °F 57.2 °F 82% 29.97 in 10.0 mi North - - N/A   Overcast
7:15 AM 62.6 °F 57.2 °F 82% 29.97 in 10.0 mi North - - N/A   Overcast
7:35 AM 62.6 °F 57.2 °F 82% 29.97 in 10.0 mi North - - N/A   Overcast
7:55 AM 62.6 °F 57.2 °F 82% 29.97 in 10.0 mi North - - N/A   Overcast
8:15 AM 62.6 °F 57.2 °F 82% 29.97 in 10.0 mi North - - N/A   Overcast
8:35 AM 62.6 °F 57.2 °F 82% 29.97 in 10.0 mi North - - N/A   Overcast
8:55 AM 64.4 °F 57.2 °F 77% 29.97 in 10.0 mi North - - N/A   Overcast
9:15 AM 64.4 °F 57.2 °F 77% 29.96 in 10.0 mi North - - N/A   Overcast
9:35 AM 64.4 °F 59.0 °F 83% 29.96 in 10.0 mi North - - N/A   Overcast
9:55 AM 64.4 °F 57.2 °F 77% 29.96 in 10.0 mi North - - N/A   Overcast
10:15 AM 64.4 °F 59.0 °F 83% 29.95 in 10.0 mi North - - N/A   Mostly Cloudy
10:35 AM 66.2 °F 59.0 °F 78% 29.94 in 10.0 mi North - - N/A   Scattered Clouds
10:55 AM 66.2 °F 59.0 °F 78% 29.93 in 10.0 mi North - - N/A   Mostly Cloudy
11:15 AM 69.8 °F 59.0 °F 68% 29.93 in 10.0 mi North - - N/A   Scattered Clouds
11:35 AM 69.8 °F 57.2 °F 64% 29.92 in 10.0 mi Calm Calm - N/A   Clear
11:55 AM 71.6 °F 59.0 °F 64% 29.92 in 10.0 mi SSW 4.6 mph - N/A   Partly Cloudy
12:15 PM 71.6 °F 59.0 °F 64% 29.91 in 10.0 mi Calm Calm - N/A   Clear
12:35 PM 73.4 °F 60.8 °F 65% 29.90 in 10.0 mi South 3.5 mph - N/A   Clear
12:55 PM - - N/A% 29.89 in 10.0 mi North - - N/A   Clear
1:15 PM - - N/A% 29.88 in 10.0 mi SE 3.5 mph - N/A   Clear
1:35 PM - - N/A% 29.87 in 10.0 mi Calm Calm - N/A   Clear
1:55 PM - - N/A% 29.87 in 10.0 mi Calm Calm - N/A   Scattered Clouds
2:15 PM - - N/A% 29.86 in 10.0 mi WSW 3.5 mph - N/A   Mostly Cloudy
2:35 PM - - N/A% 29.86 in 10.0 mi WSW 4.6 mph - N/A   Scattered Clouds
2:55 PM - - N/A% 29.85 in 10.0 mi South 3.5 mph - N/A   Scattered Clouds
3:15 PM - - N/A% 29.84 in 10.0 mi Calm Calm - N/A   Scattered Clouds
3:35 PM - - N/A% 29.84 in 10.0 mi Calm Calm - N/A   Scattered Clouds
3:55 PM - - N/A% 29.83 in 10.0 mi East 3.5 mph - N/A   Scattered Clouds
4:15 PM - - N/A% 29.83 in 10.0 mi Calm Calm - N/A   Scattered Clouds
4:35 PM - - N/A% 29.83 in 10.0 mi Calm Calm - N/A   Mostly Cloudy
4:55 PM - - N/A% 29.83 in 10.0 mi Calm Calm - N/A   Overcast
5:15 PM - - N/A% 29.83 in 10.0 mi WNW 3.5 mph - N/A   Mostly Cloudy
5:35 PM - - N/A% 29.84 in 10.0 mi Calm Calm - N/A   Partly Cloudy
5:55 PM - - N/A% 29.84 in 10.0 mi West 8.1 mph - N/A   Clear
6:15 PM - - N/A% 29.85 in 10.0 mi West 4.6 mph - N/A   Clear
6:35 PM - - N/A% 29.85 in 10.0 mi WNW 3.5 mph - N/A   Clear
6:55 PM - - N/A% 29.85 in 10.0 mi Calm Calm - N/A   Scattered Clouds
7:15 PM - - N/A% 29.85 in 10.0 mi West 4.6 mph - N/A   Mostly Cloudy
7:35 PM - - N/A% 29.86 in 10.0 mi Calm Calm - N/A   Mostly Cloudy
7:55 PM - - N/A% 29.86 in 10.0 mi WNW 3.5 mph - N/A   Mostly Cloudy
8:15 PM - - N/A% 29.86 in 10.0 mi NW 3.5 mph - N/A   Mostly Cloudy
8:35 PM - - N/A% 29.86 in 10.0 mi NW 3.5 mph - N/A   Mostly Cloudy
8:55 PM - - N/A% 29.86 in 10.0 mi Calm Calm - N/A   Scattered Clouds
9:15 PM 66.2 °F 57.2 °F 73% 29.87 in 10.0 mi Calm Calm - N/A   Clear
9:35 PM - - N/A% 29.86 in 10.0 mi Calm Calm - N/A   Partly Cloudy
9:55 PM 66.2 °F 57.2 °F 73% 29.87 in 10.0 mi NNE 3.5 mph - N/A   Scattered Clouds
10:15 PM 66.2 °F 57.2 °F 73% 29.87 in 10.0 mi NW 4.6 mph - N/A   Scattered Clouds
10:35 PM - - N/A% 29.87 in 10.0 mi NW 3.5 mph - N/A   Mostly Cloudy
10:55 PM - - N/A% 29.87 in 10.0 mi Calm Calm - N/A   Scattered Clouds
11:15 PM 64.4 °F 57.2 °F 77% 29.88 in 10.0 mi Calm Calm - N/A   Scattered Clouds
11:35 PM 64.4 °F 57.2 °F 77% 29.88 in 10.0 mi Calm Calm - N/A   Mostly Cloudy
11:55 PM - - N/A% 29.87 in 10.0 mi Calm Calm - N/A   Overcast